QPF
0.02 0.01 0.01 0.00 0.00 0.00 0.01 0.02 0.03 0.04 0.04 0.03 0.02 0.01 0.01 0.03 0.04 0.06 0.04 0.03 0.03 0.03 0.03 0.03 0.03 0.03 0.02 0.02 0.01 0.02 0.02 0.02 0.03 0.03 0.03 0.04 0.04 0.04 0.04 0.04 0.04 0.04 0.04 0.04
0.02 0.01 0.00 0.01 0.00 0.00 0.00 0.01 0.03 0.02 0.03 0.02 0.01 0.02 0.02 0.03 0.05 0.05 0.04 0.03 0.03 0.03 0.03 0.02 0.02 0.02 0.02 0.01 0.02 0.02 0.02 0.02 0.03 0.04 0.04 0.05 0.05 0.05 0.06 0.05 0.05 0.04 0.04 0.05
0.03 0.01 0.01 0.02 0.01 0.01 0.01 0.01 0.02 0.03 0.03 0.01 0.01 0.02 0.03 0.04 0.05 0.05 0.04 0.02 0.02 0.02 0.02 0.02 0.03 0.03 0.02 0.03 0.04 0.04 0.03 0.02 0.04 0.06 0.06 0.07 0.07 0.06 0.08 0.07 0.06 0.05 0.04 0.05
0.03 0.03 0.04 0.03 0.00 0.01 0.01 0.01 0.01 0.02 0.02 0.01 0.02 0.03 0.02 0.03 0.05 0.05 0.05 0.03 0.02 0.02 0.03 0.04 0.04 0.03 0.02 0.03 0.03 0.03 0.02 0.03 0.05 0.07 0.07 0.07 0.07 0.08 0.08 0.07 0.05 0.05 0.05 0.06
0.04 0.04 0.04 0.02 0.01 0.00 0.01 0.01 0.01 0.01 0.01 0.02 0.02 0.02 0.02 0.03 0.04 0.05 0.05 0.04 0.02 0.02 0.02 0.03 0.03 0.03 0.02 0.03 0.04 0.04 0.04 0.04 0.05 0.06 0.06 0.07 0.07 0.07 0.06 0.06 0.05 0.05 0.06 0.07
0.05 0.04 0.05 0.04 0.01 0.00 0.01 0.04 0.01 0.02 0.02 0.03 0.02 0.03 0.04 0.03 0.03 0.03 0.04 0.03 0.02 0.03 0.02 0.02 0.02 0.03 0.03 0.04 0.05 0.03 0.03 0.04 0.04 0.04 0.03 0.05 0.06 0.05 0.04 0.05 0.05 0.05 0.07 0.08
0.04 0.04 0.04 0.02 0.01 0.01 0.05 0.06 0.02 0.02 0.02 0.03 0.04 0.06 0.04 0.03 0.02 0.02 0.03 0.02 0.02 0.02 0.03 0.02 0.02 0.03 0.04 0.05 0.04 0.02 0.02 0.02 0.02 0.02 0.02 0.02 0.03 0.03 0.03 0.03 0.04 0.05 0.05 0.06
0.04 0.04 0.06 0.01 0.01 0.02 0.04 0.02 0.01 0.01 0.01 0.02 0.02 0.02 0.02 0.02 0.02 0.01 0.02 0.02 0.02 0.03 0.03 0.04 0.04 0.03 0.03 0.03 0.02 0.01 0.01 0.01 0.01 0.01 0.01 0.01 0.02 0.02 0.03 0.03 0.02 0.04 0.04 0.03
0.04 0.05 0.04 0.02 0.02 0.02 0.03 0.03 0.03 0.02 0.01 0.02 0.02 0.02 0.02 0.02 0.02 0.01 0.02 0.02 0.02 0.02 0.02 0.03 0.02 0.02 0.02 0.02 0.02 0.01 0.01 0.01 0.01 0.01 0.01 0.01 0.02 0.02 0.03 0.02 0.02 0.03 0.03 0.02
0.02 0.02 0.02 0.02 0.03 0.04 0.03 0.02 0.02 0.01 0.02 0.02 0.02 0.02 0.02 0.03 0.02 0.02 0.02 0.02 0.03 0.02 0.02 0.03 0.02 0.02 0.02 0.02 0.02 0.02 0.02 0.01 0.01 0.02 0.02 0.02 0.02 0.02 0.02 0.02 0.03 0.03 0.03 0.02
0.03 0.02 0.02 0.01 0.01 0.01 0.01 0.00 0.01 0.01 0.02 0.03 0.03 0.02 0.02 0.02 0.02 0.02 0.02 0.03 0.04 0.03 0.03 0.03 0.02 0.02 0.02 0.02 0.02 0.02 0.02 0.02 0.02 0.02 0.02 0.02 0.02 0.01 0.01 0.02 0.02 0.02 0.01 0.01
0.03 0.02 0.02 0.01 0.00 0.00 0.00 0.00 0.00 0.00 0.01 0.02 0.03 0.03 0.02 0.02 0.02 0.02 0.02 0.04 0.05 0.03 0.03 0.03 0.01 0.01 0.02 0.02 0.02 0.02 0.02 0.02 0.01 0.01 0.01 0.01 0.01 0.01 0.01 0.02 0.01 0.01 0.01 0.01
0.01 0.01 0.01 0.01 0.00 0.00 0.00 0.00 0.00 0.01 0.01 0.01 0.02 0.04 0.03 0.01 0.01 0.01 0.01 0.04 0.05 0.04 0.03 0.02 0.01 0.01 0.02 0.02 0.02 0.02 0.03 0.02 0.02 0.01 0.01 0.00 0.01 0.02 0.02 0.02 0.01 0.01 0.01 0.01
0.00 0.00 0.00 0.00 0.00 0.00 0.01 0.01 0.01 0.01 0.01 0.01 0.01 0.04 0.06 0.02 0.01 0.02 0.02 0.03 0.03 0.03 0.02 0.02 0.02 0.01 0.01 0.02 0.02 0.02 0.01 0.01 0.01 0.01 0.00 0.00 0.01 0.01 0.01 0.01 0.01 0.01 0.01 0.01
0.01 0.01 0.01 0.01 0.00 0.01 0.01 0.02 0.01 0.01 0.01 0.01 0.01 0.01 0.02 0.02 0.01 0.02 0.01 0.01 0.02 0.02 0.02 0.02 0.02 0.01 0.01 0.01 0.01 0.01 0.01 0.01 0.01 0.01 0.01 0.00 0.00 0.01 0.01 0.01 0.01 0.01 0.01 0.01
0.01 0.00 0.01 0.01 0.01 0.01 0.01 0.02 0.01 0.02 0.02 0.01 0.01 0.01 0.01 0.02 0.01 0.01 0.01 0.01 0.02 0.02 0.02 0.02 0.02 0.01 0.00 0.01 0.01 0.01 0.00 0.01 0.01 0.01 0.01 0.01 0.01 0.01 0.01 0.00 0.00 0.00 0.01 0.01
0.00 0.00 0.00 0.01 0.01 0.01 0.01 0.01 0.01 0.01 0.02 0.02 0.01 0.01 0.01 0.02 0.02 0.01 0.01 0.01 0.02 0.02 0.02 0.02 0.02 0.01 0.00 0.01 0.01 0.01 0.00 0.00 0.00 0.00 0.00 0.00 0.00 0.00 0.00 0.00 0.00 0.00 0.00 0.00
0.00 0.00 0.00 0.00 0.01 0.01 0.01 0.01 0.01 0.02 0.02 0.02 0.01 0.01 0.02 0.03 0.03 0.02 0.01 0.01 0.02 0.02 0.02 0.02 0.01 0.01 0.00 0.01 0.01 0.00 0.00 0.00 0.00 0.00 0.00 0.00 0.00 0.00 0.00 0.00 0.00 0.00 0.00 0.00
0.00 0.00 0.00 0.00 0.01 0.01 0.03 0.03 0.01 0.01 0.02 0.03 0.01 0.01 0.02 0.02 0.03 0.03 0.03 0.02 0.02 0.03 0.02 0.02 0.01 0.01 0.01 0.01 0.01 0.00 0.00 0.00 0.01 0.00 0.00 0.00 0.00 0.00 0.01 0.01 0.01 0.01 0.01 0.01
0.00 0.00 0.00 0.01 0.01 0.01 0.02 0.05 0.04 0.01 0.02 0.03 0.02 0.01 0.01 0.02 0.02 0.02 0.03 0.03 0.02 0.02 0.02 0.02 0.01 0.01 0.02 0.02 0.01 0.01 0.00 0.00 0.00 0.00 0.00 0.00 0.00 0.01 0.01 0.01 0.01 0.01 0.02 0.02
0.01 0.01 0.01 0.02 0.02 0.02 0.02 0.03 0.04 0.02 0.01 0.02 0.01 0.01 0.01 0.01 0.01 0.01 0.02 0.02 0.02 0.03 0.03 0.02 0.01 0.01 0.01 0.01 0.01 0.01 0.01 0.00 0.00 0.00 0.00 0.00 0.00 0.01 0.01 0.01 0.01 0.01 0.02 0.02
0.02 0.02 0.01 0.02 0.02 0.02 0.01 0.01 0.01 0.01 0.01 0.01 0.01 0.01 0.01 0.01 0.01 0.01 0.02 0.02 0.02 0.03 0.03 0.02 0.02 0.01 0.01 0.01 0.01 0.01 0.00 0.00 0.00 0.00 0.00 0.00 0.01 0.01 0.01 0.01 0.01 0.02 0.02 0.02
0.02 0.02 0.02 0.03 0.02 0.02 0.02 0.01 0.01 0.01 0.00 0.01 0.01 0.01 0.01 0.02 0.02 0.01 0.01 0.01 0.02 0.02 0.02 0.02 0.02 0.02 0.01 0.01 0.01 0.00 0.00 0.00 0.00 0.00 0.01 0.01 0.01 0.01 0.01 0.01 0.01 0.02 0.02 0.02
0.02 0.02 0.03 0.03 0.04 0.03 0.02 0.02 0.01 0.01 0.01 0.01 0.01 0.01 0.01 0.02 0.02 0.01 0.01 0.01 0.02 0.01 0.01 0.01 0.02 0.02 0.01 0.00 0.01 0.00 0.00 0.00 0.00 0.00 0.01 0.01 0.01 0.02 0.02 0.01 0.02 0.02 0.02 0.02
0.03 0.02 0.03 0.03 0.03 0.03 0.03 0.03 0.03 0.02 0.01 0.02 0.02 0.02 0.02 0.02 0.02 0.01 0.01 0.01 0.02 0.01 0.01 0.01 0.01 0.01 0.01 0.00 0.00 0.00 0.00 0.00 0.00 0.01 0.01 0.01 0.01 0.02 0.02 0.02 0.02 0.02 0.02 0.02
0.02 0.02 0.02 0.02 0.03 0.04 0.05 0.05 0.05 0.04 0.03 0.03 0.03 0.03 0.03 0.03 0.03 0.02 0.02 0.02 0.02 0.02 0.01 0.01 0.01 0.01 0.01 0.00 0.00 0.00 0.00 0.01 0.01 0.02 0.01 0.01 0.02 0.02 0.02 0.01 0.02 0.02 0.02 0.01
0.01 0.01 0.01 0.02 0.03 0.03 0.04 0.04 0.06 0.07 0.04 0.03 0.02 0.02 0.02 0.02 0.03 0.02 0.02 0.02 0.02 0.02 0.01 0.01 0.01 0.01 0.01 0.01 0.01 0.01 0.01 0.01 0.02 0.02 0.02 0.02 0.02 0.02 0.01 0.01 0.02 0.02 0.01 0.01
MSLP
1008.45 1008.25 1008.08 1007.99 1008.00 1008.09 1008.23 1008.38 1008.52 1008.60 1008.63 1008.62 1008.58 1008.57 1008.62 1008.75 1008.99 1009.32 1009.73 1010.17 1010.61 1011.00 1011.32 1011.53 1011.65 1011.69 1011.66 1011.60 1011.53 1011.45 1011.38 1011.30 1011.21 1011.10 1010.97 1010.80 1010.62 1010.44 1010.30 1010.20 1010.16 1010.20 1010.31 1010.47
1008.35 1008.18 1008.02 1007.93 1007.91 1007.96 1008.06 1008.18 1008.28 1008.36 1008.39 1008.39 1008.39 1008.41 1008.49 1008.65 1008.90 1009.24 1009.65 1010.09 1010.53 1010.92 1011.23 1011.47 1011.61 1011.68 1011.70 1011.68 1011.65 1011.61 1011.58 1011.54 1011.48 1011.39 1011.25 1011.09 1010.89 1010.69 1010.51 1010.36 1010.28 1010.28 1010.35 1010.50
1008.17 1008.07 1007.98 1007.93 1007.94 1007.99 1008.07 1008.16 1008.24 1008.29 1008.30 1008.30 1008.30 1008.33 1008.42 1008.59 1008.86 1009.20 1009.61 1010.04 1010.46 1010.84 1011.15 1011.38 1011.53 1011.61 1011.64 1011.65 1011.64 1011.64 1011.64 1011.64 1011.61 1011.55 1011.44 1011.28 1011.10 1010.89 1010.69 1010.52 1010.40 1010.36 1010.40 1010.51
1007.94 1007.95 1007.97 1008.00 1008.06 1008.14 1008.22 1008.28 1008.33 1008.33 1008.31 1008.28 1008.25 1008.28 1008.37 1008.55 1008.81 1009.16 1009.56 1009.99 1010.40 1010.76 1011.05 1011.27 1011.40 1011.47 1011.50 1011.51 1011.52 1011.53 1011.55 1011.57 1011.58 1011.55 1011.48 1011.36 1011.19 1011.00 1010.80 1010.62 1010.48 1010.41 1010.41 1010.49
1007.75 1007.88 1008.00 1008.13 1008.25 1008.36 1008.43 1008.47 1008.46 1008.41 1008.33 1008.25 1008.19 1008.19 1008.27 1008.44 1008.72 1009.07 1009.48 1009.90 1010.31 1010.66 1010.94 1011.13 1011.24 1011.30 1011.31 1011.30 1011.30 1011.32 1011.35 1011.38 1011.42 1011.42 1011.39 1011.30 1011.17 1011.01 1010.83 1010.66 1010.52 1010.43 1010.41 1010.45
1007.68 1007.91 1008.13 1008.33 1008.51 1008.63 1008.68 1008.67 1008.60 1008.47 1008.32 1008.16 1008.05 1008.02 1008.08 1008.25 1008.53 1008.90 1009.32 1009.76 1010.17 1010.52 1010.80 1010.98 1011.08 1011.12 1011.11 1011.08 1011.07 1011.07 1011.10 1011.14 1011.19 1011.22 1011.21 1011.17 1011.08 1010.96 1010.81 1010.66 1010.53 1010.44 1010.40 1010.42
1007.82 1008.13 1008.41 1008.66 1008.84 1008.94 1008.95 1008.87 1008.71 1008.49 1008.24 1008.01 1007.84 1007.76 1007.80 1007.97 1008.25 1008.64 1009.08 1009.54 1009.98 1010.35 1010.64 1010.83 1010.93 1010.96 1010.95 1010.91 1010.88 1010.87 1010.88 1010.92 1010.96 1011.01 1011.02 1011.01 1010.95 1010.87 1010.76 1010.64 1010.54 1010.46 1010.43 1010.43
1008.24 1008.58 1008.88 1009.12 1009.27 1009.32 1009.25 1009.08 1008.81 1008.49 1008.14 1007.83 1007.59 1007.46 1007.47 1007.62 1007.91 1008.31 1008.78 1009.27 1009.73 1010.14 1010.46 1010.68 1010.81 1010.85 1010.85 1010.81 1010.78 1010.76 1010.76 1010.78 1010.81 1010.85 1010.87 1010.86 1010.83 1010.77 1010.69 1010.61 1010.54 1010.50 1010.48 1010.50
1008.94 1009.26 1009.53 1009.72 1009.81 1009.76 1009.60 1009.31 1008.93 1008.50 1008.06 1007.66 1007.35 1007.17 1007.14 1007.28 1007.56 1007.96 1008.44 1008.95 1009.44 1009.88 1010.24 1010.51 1010.68 1010.77 1010.80 1010.79 1010.76 1010.75 1010.74 1010.74 1010.75 1010.76 1010.76 1010.75 1010.71 1010.66 1010.61 1010.56 1010.53 1010.52 1010.54 1010.59
1009.84 1010.12 1010.32 1010.43 1010.41 1010.26 1009.98 1009.59 1009.10 1008.57 1008.04 1007.57 1007.20 1006.96 1006.89 1006.99 1007.24 1007.62 1008.09 1008.60 1009.11 1009.58 1009.98 1010.29 1010.52 1010.67 1010.75 1010.78 1010.79 1010.79 1010.78 1010.77 1010.75 1010.72 1010.69 1010.64 1010.58 1010.52 1010.47 1010.44 1010.44 1010.48 1010.54 1010.64
1010.82 1011.03 1011.15 1011.15 1011.03 1010.78 1010.39 1009.90 1009.33 1008.73 1008.14 1007.61 1007.18 1006.90 1006.78 1006.82 1007.02 1007.34 1007.77 1008.24 1008.74 1009.21 1009.63 1009.98 1010.26 1010.47 1010.62 1010.72 1010.78 1010.80 1010.81 1010.78 1010.74 1010.67 1010.59 1010.49 1010.39 1010.30 1010.23 1010.21 1010.23 1010.30 1010.41 1010.55
1011.70 1011.84 1011.87 1011.79 1011.57 1011.23 1010.78 1010.23 1009.62 1008.98 1008.36 1007.80 1007.34 1007.01 1006.83 1006.80 1006.92 1007.16 1007.50 1007.90 1008.33 1008.76 1009.17 1009.54 1009.86 1010.13 1010.34 1010.51 1010.62 1010.70 1010.72 1010.70 1010.64 1010.53 1010.39 1010.24 1010.08 1009.95 1009.85 1009.81 1009.84 1009.92 1010.07 1010.26
1012.33 1012.42 1012.38 1012.23 1011.96 1011.57 1011.09 1010.53 1009.92 1009.29 1008.69 1008.13 1007.66 1007.30 1007.06 1006.95 1006.96 1007.08 1007.29 1007.57 1007.90 1008.25 1008.61 1008.96 1009.28 1009.59 1009.86 1010.08 1010.26 1010.39 1010.45 1010.44 1010.38 1010.25 1010.07 1009.86 1009.65 1009.47 1009.33 1009.26 1009.27 1009.36 1009.53 1009.75
1012.64 1012.69 1012.62 1012.43 1012.14 1011.76 1011.29 1010.77 1010.21 1009.64 1009.09 1008.57 1008.11 1007.73 1007.44 1007.24 1007.14 1007.12 1007.18 1007.30 1007.48 1007.70 1007.96 1008.25 1008.55 1008.86 1009.16 1009.43 1009.67 1009.85 1009.96 1009.99 1009.93 1009.80 1009.60 1009.37 1009.11 1008.88 1008.70 1008.60 1008.58 1008.66 1008.83 1009.06
1012.61 1012.64 1012.57 1012.39 1012.13 1011.78 1011.38 1010.94 1010.47 1009.99 1009.52 1009.07 1008.65 1008.27 1007.94 1007.66 1007.43 1007.26 1007.15 1007.09 1007.09 1007.16 1007.29 1007.47 1007.71 1007.98 1008.28 1008.58 1008.86 1009.10 1009.26 1009.34 1009.33 1009.22 1009.04 1008.79 1008.53 1008.27 1008.06 1007.92 1007.87 1007.92 1008.07 1008.28
1012.31 1012.36 1012.31 1012.18 1011.96 1011.69 1011.39 1011.05 1010.69 1010.32 1009.95 1009.58 1009.21 1008.85 1008.49 1008.14 1007.80 1007.49 1007.20 1006.97 1006.79 1006.68 1006.64 1006.70 1006.84 1007.05 1007.32 1007.62 1007.93 1008.21 1008.43 1008.57 1008.62 1008.57 1008.42 1008.21 1007.96 1007.70 1007.48 1007.32 1007.24 1007.26 1007.36 1007.55
1011.89 1011.97 1011.96 1011.88 1011.73 1011.55 1011.34 1011.11 1010.86 1010.61 1010.34 1010.05 1009.74 1009.40 1009.03 1008.63 1008.21 1007.77 1007.34 1006.94 1006.58 1006.30 1006.10 1006.01 1006.03 1006.15 1006.37 1006.65 1006.96 1007.27 1007.54 1007.75 1007.87 1007.89 1007.82 1007.67 1007.47 1007.24 1007.03 1006.87 1006.77 1006.75 1006.82 1006.95
1011.50 1011.61 1011.64 1011.60 1011.52 1011.41 1011.28 1011.13 1010.98 1010.82 1010.64 1010.42 1010.17 1009.86 1009.50 1009.08 1008.59 1008.08 1007.53 1006.99 1006.49 1006.05 1005.70 1005.47 1005.36 1005.39 1005.52 1005.75 1006.05 1006.37 1006.68 1006.95 1007.14 1007.25 1007.27 1007.20 1007.07 1006.90 1006.73 1006.58 1006.48 1006.44 1006.47 1006.55
1011.25 1011.37 1011.43 1011.42 1011.38 1011.31 1011.22 1011.13 1011.03 1010.92 1010.80 1010.64 1010.43 1010.16 1009.81 1009.39 1008.89 1008.33 1007.72 1007.10 1006.49 1005.94 1005.47 1005.12 1004.89 1004.80 1004.85 1005.01 1005.27 1005.57 1005.90 1006.20 1006.46 1006.65 1006.76 1006.78 1006.74 1006.64 1006.53 1006.42 1006.33 1006.28 1006.28 1006.33
1011.19 1011.31 1011.36 1011.35 1011.31 1011.24 1011.16 1011.07 1010.98 1010.89 1010.79 1010.65 1010.47 1010.24 1009.92 1009.52 1009.04 1008.48 1007.86 1007.21 1006.55 1005.94 1005.39 1004.94 1004.61 1004.42 1004.37 1004.45 1004.64 1004.90 1005.21 1005.52 1005.81 1006.06 1006.23 1006.34 1006.38 1006.37 1006.32 1006.27 1006.21 1006.17 1006.17 1006.20
1011.30 1011.38 1011.40 1011.35 1011.27 1011.16 1011.04 1010.92 1010.80 1010.68 1010.57 1010.44 1010.27 1010.06 1009.79 1009.43 1008.99 1008.48 1007.90 1007.27 1006.62 1005.99 1005.40 1004.89 1004.49 1004.22 1004.07 1004.05 1004.15 1004.34 1004.60 1004.88 1005.16 1005.43 1005.65 1005.81 1005.92 1005.98 1006.01 1006.01 1006.00 1006.00 1006.01 1006.05
1011.49 1011.51 1011.46 1011.35 1011.20 1011.02 1010.83 1010.64 1010.46 1010.30 1010.15 1010.00 1009.84 1009.65 1009.41 1009.12 1008.75 1008.31 1007.80 1007.24 1006.64 1006.04 1005.46 1004.93 1004.48 1004.14 1003.90 1003.79 1003.78 1003.87 1004.04 1004.25 1004.49 1004.73 1004.95 1005.13 1005.28 1005.40 1005.48 1005.55 1005.60 1005.66 1005.72 1005.79
1011.64 1011.57 1011.45 1011.26 1011.03 1010.77 1010.50 1010.23 1009.98 1009.76 1009.56 1009.38 1009.21 1009.04 1008.85 1008.62 1008.33 1007.99 1007.58 1007.11 1006.59 1006.06 1005.52 1005.00 1004.53 1004.14 1003.83 1003.61 1003.50 1003.47 1003.52 1003.62 1003.77 1003.95 1004.13 1004.30 1004.46 1004.61 1004.74 1004.86 1004.99 1005.11 1005.24 1005.38
1011.65 1011.51 1011.30 1011.04 1010.74 1010.41 1010.06 1009.72 1009.40 1009.12 1008.88 1008.67 1008.49 1008.33 1008.18 1008.00 1007.80 1007.55 1007.25 1006.89 1006.47 1006.02 1005.55 1005.07 1004.60 1004.18 1003.80 1003.50 1003.28 1003.12 1003.04 1003.02 1003.06 1003.13 1003.23 1003.36 1003.50 1003.66 1003.82 1004.00 1004.19 1004.39 1004.61 1004.84
1011.50 1011.28 1011.02 1010.71 1010.35 1009.96 1009.57 1009.18 1008.81 1008.49 1008.20 1007.97 1007.78 1007.63 1007.50 1007.37 1007.24 1007.07 1006.87 1006.61 1006.30 1005.94 1005.54 1005.11 1004.67 1004.24 1003.83 1003.45 1003.12 1002.85 1002.64 1002.49 1002.40 1002.35 1002.37 1002.42 1002.52 1002.66 1002.84 1003.06 1003.31 1003.59 1003.90 1004.24
1011.18 1010.93 1010.63 1010.29 1009.92 1009.52 1009.11 1008.70 1008.31 1007.95 1007.64 1007.39 1007.19 1007.03 1006.91 1006.82 1006.73 1006.62 1006.49 1006.32 1006.10 1005.83 1005.50 1005.14 1004.73 1004.31 1003.88 1003.46 1003.06 1002.69 1002.37 1002.09 1001.88 1001.72 1001.63 1001.61 1001.65 1001.76 1001.95 1002.19 1002.50 1002.85 1003.25 1003.69
1010.78 1010.52 1010.23 1009.90 1009.54 1009.16 1008.76 1008.35 1007.97 1007.61 1007.28 1007.01 1006.79 1006.62 1006.49 1006.40 1006.33 1006.26 1006.17 1006.06 1005.91 1005.71 1005.45 1005.15 1004.80 1004.40 1003.98 1003.54 1003.09 1002.66 1002.25 1001.88 1001.56 1001.31 1001.13 1001.03 1001.02 1001.10 1001.27 1001.53 1001.87 1002.29 1002.76 1003.28
Thickness
5735 5742 5743 5741 5740 5740 5735 5731 5720 5720 5719 5722 5728 5728 5728 5727 5723 5720 5718 5716 5714 5711 5709 5708 5707 5705 5705 5704 5702 5700 5697 5694 5691 5690 5688 5686 5684 5682 5680 5678 5676 5673 5671 5669
5729 5742 5742 5737 5740 5739 5736 5733 5728 5724 5719 5730 5733 5730 5726 5724 5721 5718 5716 5714 5713 5711 5709 5707 5706 5705 5704 5702 5701 5698 5695 5692 5691 5689 5686 5684 5682 5679 5677 5675 5672 5670 5668 5665
5718 5736 5734 5722 5733 5734 5730 5731 5725 5713 5717 5728 5726 5724 5722 5721 5720 5718 5716 5714 5712 5709 5708 5707 5706 5705 5703 5701 5699 5696 5693 5691 5689 5686 5684 5682 5680 5677 5674 5672 5669 5667 5664 5662
5718 5721 5702 5725 5746 5741 5731 5728 5728 5723 5725 5726 5725 5726 5726 5724 5720 5717 5716 5713 5711 5709 5708 5707 5707 5705 5704 5701 5698 5694 5691 5689 5687 5684 5682 5680 5677 5675 5672 5669 5666 5664 5662 5660
5710 5708 5712 5726 5736 5735 5725 5718 5726 5723 5723 5726 5727 5724 5720 5722 5720 5716 5714 5712 5711 5709 5708 5706 5705 5703 5701 5698 5695 5692 5689 5687 5685 5683 5680 5677 5674 5672 5669 5667 5664 5662 5660 5658
5706 5698 5696 5713 5734 5741 5728 5706 5722 5722 5719 5719 5718 5705 5705 5715 5716 5714 5712 5711 5709 5708 5706 5703 5702 5701 5697 5694 5692 5689 5687 5685 5684 5681 5678 5674 5672 5670 5668 5665 5663 5661 5659 5658
5702 5699 5704 5722 5733 5732 5701 5697 5717 5718 5717 5715 5709 5706 5709 5713 5711 5710 5709 5708 5707 5705 5703 5701 5701 5698 5693 5691 5689 5688 5687 5685 5682 5679 5676 5673 5670 5668 5666 5664 5662 5660 5658 5656
5701 5693 5691 5720 5722 5708 5701 5712 5714 5715 5715 5712 5711 5710 5709 5708 5707 5706 5705 5704 5703 5701 5699 5699 5698 5695 5691 5688 5689 5687 5685 5682 5679 5676 5674 5671 5668 5665 5664 5661 5659 5657 5655 5654
5700 5697 5706 5714 5711 5711 5712 5709 5710 5711 5713 5711 5708 5705 5704 5702 5701 5702 5701 5700 5700 5698 5696 5696 5695 5693 5688 5687 5687 5685 5681 5678 5676 5673 5671 5669 5666 5663 5661 5659 5657 5655 5654 5651
5700 5703 5707 5709 5709 5709 5709 5707 5708 5709 5709 5708 5703 5701 5699 5697 5696 5696 5697 5696 5695 5694 5692 5690 5691 5690 5688 5687 5685 5681 5678 5675 5673 5670 5667 5666 5663 5661 5659 5656 5654 5653 5651 5649
5693 5696 5698 5700 5703 5704 5705 5706 5705 5705 5704 5702 5699 5696 5694 5692 5691 5691 5691 5691 5690 5689 5687 5687 5688 5687 5686 5685 5682 5678 5675 5673 5671 5668 5665 5663 5660 5658 5656 5654 5652 5649 5648 5647
5685 5692 5691 5691 5698 5701 5698 5698 5698 5697 5696 5696 5695 5691 5690 5687 5687 5687 5686 5686 5685 5685 5684 5684 5685 5684 5683 5682 5679 5675 5672 5670 5669 5667 5665 5662 5659 5656 5654 5652 5650 5648 5646 5644
5691 5694 5693 5692 5693 5695 5693 5693 5694 5692 5690 5687 5688 5686 5684 5682 5682 5682 5682 5681 5680 5681 5681 5681 5680 5680 5680 5679 5677 5673 5669 5667 5666 5666 5664 5662 5660 5656 5653 5651 5649 5647 5645 5642
5689 5687 5682 5683 5684 5687 5687 5687 5688 5687 5686 5683 5682 5682 5679 5678 5678 5677 5677 5677 5677 5677 5677 5677 5676 5676 5677 5676 5674 5670 5668 5666 5664 5663 5663 5662 5660 5658 5655 5653 5650 5648 5645 5641
5681 5679 5676 5677 5678 5678 5679 5678 5677 5677 5677 5676 5676 5675 5673 5672 5672 5672 5674 5674 5674 5673 5673 5673 5672 5672 5674 5673 5670 5668 5666 5665 5664 5663 5662 5662 5661 5659 5658 5655 5652 5650 5648 5642
5673 5673 5671 5669 5668 5669 5669 5668 5667 5668 5669 5668 5668 5669 5669 5668 5668 5669 5669 5669 5668 5667 5667 5668 5668 5669 5670 5670 5668 5666 5664 5662 5661 5662 5661 5661 5660 5659 5657 5655 5653 5650 5648 5644
5661 5659 5659 5658 5660 5660 5661 5661 5662 5662 5663 5663 5662 5663 5663 5663 5662 5662 5663 5664 5664 5663 5664 5664 5664 5666 5667 5666 5665 5665 5664 5663 5659 5660 5660 5659 5659 5658 5657 5655 5653 5651 5649 5647
5657 5656 5655 5653 5654 5654 5655 5656 5656 5656 5656 5657 5658 5657 5656 5654 5653 5654 5656 5658 5658 5658 5659 5660 5661 5662 5663 5663 5662 5663 5663 5663 5662 5660 5659 5658 5657 5657 5656 5654 5652 5650 5648 5646
5650 5649 5649 5649 5649 5649 5648 5648 5649 5650 5652 5652 5652 5650 5650 5650 5649 5649 5650 5651 5651 5650 5653 5656 5655 5657 5658 5659 5657 5659 5661 5660 5660 5659 5658 5655 5655 5656 5655 5653 5651 5650 5648 5646
5639 5640 5641 5642 5643 5643 5642 5644 5645 5645 5646 5646 5645 5644 5643 5644 5645 5644 5644 5644 5646 5648 5650 5651 5651 5652 5654 5654 5652 5656 5658 5658 5658 5658 5657 5655 5654 5654 5653 5652 5651 5649 5647 5645
5628 5630 5631 5632 5634 5635 5636 5637 5636 5636 5639 5640 5638 5637 5637 5638 5639 5639 5637 5638 5641 5643 5644 5643 5645 5648 5650 5649 5648 5652 5654 5655 5655 5655 5655 5654 5653 5652 5651 5649 5648 5647 5645 5643
5618 5620 5621 5622 5624 5625 5628 5630 5630 5631 5632 5632 5632 5632 5631 5631 5633 5633 5633 5634 5636 5635 5637 5639 5641 5642 5642 5642 5647 5649 5650 5651 5652 5653 5653 5652 5651 5650 5648 5647 5646 5644 5642 5641
5609 5610 5612 5613 5614 5616 5618 5620 5622 5623 5624 5625 5625 5625 5625 5625 5627 5625 5626 5630 5632 5629 5631 5634 5634 5633 5633 5637 5642 5644 5646 5646 5648 5649 5650 5650 5649 5647 5646 5645 5643 5641 5638 5636
5599 5601 5603 5605 5606 5606 5608 5611 5613 5614 5616 5618 5620 5621 5621 5620 5621 5624 5625 5624 5624 5623 5626 5626 5625 5626 5626 5632 5636 5639 5641 5642 5643 5645 5646 5647 5646 5645 5644 5642 5639 5638 5636 5634
5589 5592 5594 5596 5597 5599 5602 5604 5605 5607 5610 5612 5614 5615 5616 5617 5617 5619 5620 5619 5618 5617 5621 5621 5620 5621 5623 5628 5631 5635 5637 5638 5638 5639 5640 5640 5641 5641 5640 5638 5637 5635 5632 5630
5581 5584 5586 5588 5590 5592 5595 5596 5598 5600 5602 5604 5606 5608 5610 5612 5613 5613 5613 5614 5614 5614 5616 5617 5618 5617 5621 5624 5627 5630 5631 5631 5633 5633 5634 5635 5635 5635 5635 5633 5631 5630 5628 5626
5573 5576 5578 5581 5584 5586 5588 5589 5591 5593 5595 5596 5598 5601 5603 5604 5606 5607 5608 5609 5610 5610 5611 5613 5614 5615 5618 5620 5622 5624 5626 5627 5628 5628 5629 5628 5628 5628 5627 5627 5625 5624 5622 5620